FW4441 Weather Reports


Display with metric or nautical units.
time (UTC)temp
F
wind
direction
speed
MPH
gust
MPH
rain 1hr
in
rain 24hr
in
rain mn
in
humidity
%
barometer
mb
20260508041530 57 235 3.0 7.0 0.00 0.00 0.00 43 1013.6
20260508034532 59 238 5.0 13.0 0.00 0.00 0.00 37 1013.3
20260508031533 61 229 5.0 9.0 0.00 0.00 0.00 32 1013.0
20260508030030 62 219 5.0 10.0 0.00 0.00 0.00 30 1013.0
20260508023031 64 255 8.0 15.0 0.00 0.00 0.00 28 1012.8
20260508021608 65 261 8.0 15.0 0.00 0.00 0.00 27 1012.7
20260508020028 66 259 9.0 21.0 0.00 0.00 0.00 26 1012.6
20260508013030 68 255 11.0 21.0 0.00 0.00 0.00 23 1012.5
20260508011531 70 258 11.0 22.0 0.00 0.00 0.00 23 1012.6
20260508010107 70 265 11.0 23.0 0.00 0.00 0.00 22 1012.7
20260508004603 71 272 11.0 23.0 0.00 0.00 0.00 21 1012.7
20260508001532 72 271 11.0 22.0 0.00 0.00 0.00 21 1012.7
20260508000037 72 268 10.0 21.0 0.00 0.00 0.00 22 1012.7
20260507234533 72 264 12.0 26.0 0.00 0.00 0.00 23 1012.7
20260507231532 70 256 13.0 25.0 0.00 0.00 0.00 27 1012.9
20260507230029 71 255 13.0 25.0 0.00 0.00 0.00 28 1012.9
20260507224532 73 249 14.0 25.0 0.00 0.00 0.00 28 1012.9
20260507223030 74 248 13.0 22.0 0.00 0.00 0.00 29 1013.0
20260507220147 73 264 9.0 21.0 0.00 0.00 0.00 32 1013.5
20260507214530 73 268 11.0 21.0 0.00 0.00 0.00 33 1013.6
20260507213035 74 262 11.0 22.0 0.00 0.00 0.00 35 1013.8
20260507210031 73 270 7.0 17.0 0.00 0.00 0.00 39 1014.1
20260507204608 72 280 9.0 19.0 0.00 0.00 0.00 39 1014.2
20260507203032 73 285 8.0 18.0 0.00 0.00 0.00 40 1014.3
20260507201531 72 282 8.0 15.0 0.00 0.00 0.00 41 1014.5
20260507193031 69 284 8.0 16.0 0.00 0.00 0.00 44 1014.8
20260507190105 66 266 13.0 24.0 0.00 0.00 0.00 45 1015.1
20260507184533 67 275 12.0 24.0 0.00 0.00 0.00 47 1015.2
20260507183040 66 283 9.0 20.0 0.00 0.00 0.00 50 1015.5
20260507180031 65 301 6.0 13.0 0.00 0.00 0.00 53 1015.8
20260507173030 63 295 5.0 12.0 0.00 0.00 0.00 57 1016.2
20260507171605 62 284 7.0 14.0 0.00 0.00 0.00 58 1016.3
20260507170145 61 273 7.0 14.0 0.00 0.00 0.00 60 1016.4
20260507164607 59 269 7.0 14.0 0.00 0.00 0.00 62 1016.3
20260507163031 59 273 8.0 17.0 0.00 0.00 0.00 63 1016.5
20260507161533 58 275 7.0 18.0 0.00 0.00 0.00 64 1016.5
20260507153028 55 258 10.0 20.0 0.00 0.00 0.00 70 1016.6
20260507151603 55 262 10.0 18.0 0.00 0.00 0.00 72 1016.6
20260507150037 53 266 10.0 21.0 0.00 0.00 0.00 75 1016.6
20260507144534 52 265 10.0 21.0 0.00 0.00 0.00 79 1016.7
20260507143031 51 286 8.0 20.0 0.00 0.00 0.00 81 1016.7
20260507141531 50 307 8.0 14.0 0.00 0.00 0.00 83 1016.7
20260507140032 50 341 10.0 15.0 0.00 0.00 0.00 84 1016.5
20260507134533 49 360 9.0 14.0 0.00 0.00 0.00 85 1016.3
20260507131645 49 340 6.0 11.0 0.00 0.00 0.00 84 1016.1
20260507130033 50 312 5.0 10.0 0.00 0.00 0.00 84 1016.1
20260507124529 50 306 4.0 7.0 0.00 0.00 0.00 83 1016.0
20260507123107 50 332 5.0 8.0 0.00 0.00 0.00 82 1016.1
20260507121554 51 343 3.0 7.0 0.00 0.00 0.00 82 1016.2
20260507120030 51 324 4.0 10.0 0.00 0.00 0.00 82 1016.1
20260507114606 51 302 6.0 12.0 0.00 0.00 0.00 81 1015.9
20260507113030 52 261 7.0 17.0 0.00 0.00 0.00 81 1015.8
20260507111530 52 258 9.0 19.0 0.00 0.00 0.00 81 1015.6
20260507110032 52 267 7.0 18.0 0.00 0.00 0.00 82 1015.6
20260507104532 52 274 5.0 14.0 0.00 0.00 0.00 82 1015.6
20260507101531 52 248 7.0 14.0 0.00 0.00 0.00 81 1015.7
20260507100040 53 250 9.0 18.0 0.00 0.00 0.00 80 1015.7
20260507094531 53 252 10.0 19.0 0.00 0.00 0.00 80 1015.7
20260507093032 54 241 9.0 18.0 0.00 0.00 0.00 80 1015.7
20260507091530 54 244 9.0 18.0 0.00 0.00 0.00 80 1015.7
20260507090029 54 258 8.0 19.0 0.00 0.00 0.00 80 1015.8
20260507084530 54 233 6.0 14.0 0.00 0.00 0.00 80 1015.8
20260507081533 54 245 5.0 9.0 0.00 0.00 0.00 79 1015.8
20260507080029 54 240 3.0 7.0 0.00 0.00 0.00 79 1015.9
20260507074531 55 246 4.0 11.0 0.00 0.00 0.00 78 1016.0
20260507073032 56 255 6.0 13.0 0.00 0.00 0.00 78 1016.1
20260507071531 56 253 8.0 19.0 0.00 0.00 0.00 78 1016.1
20260507061530 57 240 6.0 13.0 0.00 0.00 0.00 78 1016.2
20260507060031 57 248 8.0 15.0 0.00 0.00 0.00 77 1016.2
20260507054607 58 252 10.0 18.0 0.00 0.00 0.00 77 1016.3
20260507053032 58 250 11.0 20.0 0.00 0.00 0.00 77 1016.5
20260507051530 58 248 9.0 20.0 0.00 0.00 0.00 76 1016.7
20260507050107 58 255 7.0 16.0 0.00 0.00 0.00 75 1016.7
20260507044531 58 264 8.0 19.0 0.00 0.00 0.00 74 1016.6
20260507043031 58 256 7.0 13.0 0.00 0.00 0.00 72 1016.6